[[{"header":{"parameterUnit":"m.s-1","parameterCategory":1,"la1":30.2991,"la2":30.254,"lo1":-89.0895,"lo2":-89.0444,"dy":0.0017,"dx":0.0017,"nx":28,"ny":28,"refTime":"2025-11-11T03:00:00:Z","depth":0,"parameterNumber":2,"parameterNumberName":"U-component_of_WINDS"},"data":[0,0,0,0,0,0,0,0,0,0,0,0,0,0,0,0,0,0,0,0,0,0,0,0,0,0,0,0,0,0,0,0,0,0,0,0,0,0,0,0,0,0,0,0,0,0,0,0,0,0,0,0,0,0,0,0,0,0,-2.9236,-2.9237,0,-2.9362,-2.9363,-2.9365,-2.9319,-2.9316,-2.9313,-2.931,-2.9438,-2.9444,-2.945,0,0,0,0,0,0,0,0,0,0,0,0,0,-2.8953,-2.8959,-2.9236,-2.9238,-2.9239,-2.9362,-2.9363,-2.9365,-2.9319,-2.9316,-2.9312,-2.9309,-2.9436,-2.9443,-2.9451,0,0,0,0,0,0,0,0,0,0,0,0,0,-2.9077,-2.896,-2.9236,-2.9231,-2.9232,-2.9361,-2.9363,-2.9366,-2.932,-2.9316,-2.9311,-2.9307,-2.9434,-2.9443,-2.9452,-2.9593,0,0,-2.9479,-2.9483,0,0,0,0,0,0,0,0,-2.907,-2.9088,-2.923,-2.9232,-2.9233,-2.932,-2.931,-2.9442,-2.9321,-2.9287,-2.931,-2.9305,-2.9402,-2.9414,-2.9447,-2.9599,-2.9604,-2.948,-2.9486,-2.949,-2.9492,0,0,0,0,0,0,0,-2.9062,-2.9082,-2.9286,-2.9232,-2.9234,-2.9222,-2.9235,-2.9335,-2.9367,-2.9289,-2.9286,-2.9302,-2.9402,-2.9438,-2.9449,-2.9606,-2.948,-2.9488,-2.9494,-2.9497,-2.9877,-2.9881,0,0,0,0,0,0,-2.9053,-2.9075,-2.9282,-2.9289,-2.9139,-2.923,-2.9245,-2.9296,-2.9366,-2.9372,-2.9305,-2.9299,-2.9425,-2.9439,-2.9454,-2.9621,-2.949,-2.9498,-2.9503,-2.9872,-2.9878,-2.9883,0,0,0,0,0,0,-2.9047,-2.9072,-2.9277,-2.9182,-2.9207,-2.924,-2.9298,-2.9301,-2.9337,-2.9378,-2.9383,-2.9336,-2.9422,-2.9441,-2.9558,-2.9625,-2.9502,-2.951,-2.9867,-2.9874,-2.9881,-2.9958,0,0,0,0,0,0,-2.9039,-2.907,-2.9125,-2.9183,-2.9212,-2.938,-2.9302,-2.9307,-2.9353,-2.9346,-2.9408,-2.9414,-2.942,-2.9545,-2.9567,-2.9635,-2.9518,-2.9861,-2.987,-2.9878,-2.995,-2.9967,-2.9982,0,0,0,0,0,-2.9029,-2.9142,-2.9128,-2.9153,-2.9281,-2.9384,-2.94,-2.9405,-2.9359,-2.9413,-2.9439,-2.9412,-2.9614,-2.9557,-2.9582,-2.9654,-2.9857,-2.9868,-2.9878,-2.9943,-2.9964,-2.9982,0,0,0,0,0,0,-2.9091,-2.915,-2.9134,-2.927,-2.9322,-2.9376,-2.9445,-2.9427,-2.9494,-2.9485,-2.9487,-2.9501,-2.9621,-2.9649,-2.9585,-2.9792,-2.9728,-2.9744,-2.9769,-2.979,-2.9805,-2.9795,-2.9525,0,0,0,0,0,-2.912,-2.92,-2.9246,-2.9361,-2.9388,-2.9412,-2.9457,-2.9456,-2.951,-2.9532,-2.9566,-2.9619,-2.9694,-2.9744,-2.9815,-2.9954,-2.9965,-3.0016,-3.0031,-3.0044,-3.0058,-3.013,-3.0152,-2.9917,-2.9917,-2.9917,0,0,-2.9182,-2.9224,-2.9274,-2.9375,-2.9415,-2.9495,-2.9431,-2.952,-2.9579,-2.9545,-2.9657,-2.9684,-2.9743,-2.9871,-2.9929,-2.9898,-3.0125,-3.0058,-3.0068,-3.0074,-3.0143,-3.0165,-3.0185,-2.9924,-2.9923,-2.9922,0,0,-2.9335,-2.9376,-2.9474,-2.9516,-2.9577,-2.9592,-2.9616,-2.9672,-2.9689,-2.9801,-2.9776,-2.9847,-2.9977,-3.0019,-3.0057,-3.0224,-3.0201,-3.0247,-3.033,-3.04,-3.0419,-3.0435,-3.0492,-3.0512,-3.026,-3.0261,-3.0261,0,-2.9404,-2.9525,-2.9528,-2.9617,-2.9661,-2.9634,-2.9733,-2.9773,-2.9855,-2.9885,-2.985,-3.001,-3.0049,-3.0184,-3.0224,-3.0258,-3.0283,-3.0239,-3.0416,-3.0432,-3.0448,-3.0501,-3.0523,-3.0266,-3.0265,-3.0265,-3.0264,0,-2.9604,-2.9688,-2.9761,-2.9839,-2.9892,-2.9986,-3.0002,-3.0054,-3.0048,-3.0066,-3.0179,-3.0224,-3.0303,-3.0335,-3.0331,-3.047,-3.0448,-3.0415,-3.035,-3.0475,-3.0525,-3.0546,-3.0273,-3.0271,-3.027,-3.0268,0,0,-2.98,-2.9878,-2.9904,-2.9938,-3.0003,-3.0068,-3.016,-3.0237,-3.028,-3.0337,-3.0413,-3.0522,-3.0491,-3.0534,-3.0534,-3.0596,-3.0721,-3.0555,-3.0556,-3.0582,-3.0874,-3.0897,-3.0921,-3.0707,-3.0711,-3.0714,-3.0868,0,-2.9956,-3.0117,-3.0122,-3.0269,-3.0345,-3.0319,-3.0399,-3.0446,-3.0466,-3.0532,-3.0553,-3.0629,-3.0583,-3.0609,-3.067,-3.0694,-3.078,-3.0683,-3.0775,-3.0779,-3.0759,-3.0948,-3.0973,-3.1116,-3.0888,-3.0891,-3.0894,0,-3.016,-3.0222,-3.0377,-3.0428,-3.046,-3.0532,-3.0601,-3.0665,-3.0718,-3.0727,-3.0775,-3.0765,-3.0857,-3.079,-3.0915,-3.0849,-3.0887,-3.0905,-3.091,-3.0917,-3.0842,-3.0958,-3.1162,-3.1182,-3.0926,-3.0923,-3.0921,0,-3.0284,-3.0406,-3.0514,-3.0544,-3.0608,-3.0658,-3.0687,-3.0735,-3.078,-3.0841,-3.0869,-3.094,-3.0978,-3.1032,-3.104,-3.0992,-3.1165,-3.11,-3.1173,-3.1173,-3.1209,-3.1207,-3.142,-3.1238,-3.1238,-3.1238,-3.1237,0,-3.0456,-3.0551,-3.057,-3.0636,-3.074,-3.0744,-3.0847,-3.0872,-3.0915,-3.0984,-3.0967,-3.1031,-3.104,-3.1106,-3.1114,-3.1214,-3.1233,-3.1241,-3.1241,-3.1241,-3.124,-3.1265,-3.1254,-3.1243,-3.1242,-3.1241,-3.124,0,-3.0612,-3.0629,-3.0743,-3.0793,-3.0808,-3.0883,-3.0925,-3.0987,-3.1004,-3.1091,-3.1112,-3.1138,-3.1215,-3.1229,-3.1321,-3.1325,-3.1445,-3.1436,-3.1427,-3.1425,-3.1496,-3.1488,-3.1731,-3.1762,-3.1563,-3.1564,-3.1566,0,-3.0719,-3.0791,-3.0849,-3.0894,-3.0924,-3.0998,-3.1043,-3.1049,-3.1096,-3.116,-3.1214,-3.1289,-3.135,-3.1474,-3.1501,-3.157,-3.1561,-3.1642,-3.1571,-3.1568,-3.1559,-3.1553,-3.1559,-3.1654,-3.1657,-3.1658,-3.166,0,-3.0908,-3.0912,-3.0978,-3.1047,-3.1101,-3.1156,-3.1207,-3.1245,-3.1257,-3.1311,-3.1389,-3.1436,-3.1529,-3.1603,-3.1671,-3.1699,-3.1681,-3.1682,-3.1702,-3.1701,-3.1691,-3.1695,-3.1461,-3.1676,-3.1674,-3.1673,-3.1672,-3.1672,-3.1041,-3.1103,-3.1152,-3.1225,-3.1264,-3.1312,-3.1372,-3.1396,-3.1461,-3.1537,-3.1536,-3.1621,-3.167,-3.176,-3.1792,-3.1858,-3.1832,-3.1862,-3.1869,-3.1876,-3.1881,-3.1683,-3.1871,-3.187,-3.187,-3.187,-3.1869,0,-3.1226,-3.1256,-3.1324,-3.1395,-3.1453,-3.1431,-3.1486,-3.1535,-3.161,-3.1657,-3.1716,-3.1805,-3.1876,-3.1908,-3.1977,-3.2024,-3.2017,-3.2042,-3.2037,-3.2043,-3.1902,-3.1876,-3.2046,-3.2046,-3.2046,-3.2046,-3.2046,-3.2046,-3.1329,-3.1431,-3.1441,-3.1561,-3.159,-3.1673,-3.1706,-3.175,-3.1786,-3.1886,-3.1945,-3.1965,-3.2005,-3.2077,-3.2141,-3.2148,-3.2173,-3.2202,-3.2205,-3.2072,-3.2054,-3.2036,-3.2012,-3.2208,-3.2208,-3.234,-3.2341,-3.2342]},{"header":{"parameterUnit":"m.s-1","parameterCategory":1,"la1":30.2991,"la2":30.254,"lo1":-89.0895,"lo2":-89.0444,"dy":0.0017,"dx":0.0017,"nx":28,"ny":28,"refTime":"2025-11-11T03:00:00:Z","depth":0,"parameterNumber":3,"parameterNumberName":"V-component_of_WINDS"},"data":[0,0,0,0,0,0,0,0,0,0,0,0,0,0,0,0,0,0,0,0,0,0,0,0,0,0,0,0,0,0,0,0,0,0,0,0,0,0,0,0,0,0,0,0,0,0,0,0,0,0,0,0,0,0,0,0,0,0,-5.5284,-5.5285,0,-5.5379,-5.538,-5.5381,-5.5277,-5.5273,-5.527,-5.5266,-5.5358,-5.5364,-5.537,0,0,0,0,0,0,0,0,0,0,0,0,0,-5.5006,-5.5012,-5.5284,-5.5285,-5.5286,-5.5378,-5.538,-5.5381,-5.5278,-5.5273,-5.5268,-5.5264,-5.5356,-5.5363,-5.5371,0,0,0,0,0,0,0,0,0,0,0,0,0,-5.5116,-5.5014,-5.5283,-5.5246,-5.5243,-5.5378,-5.538,-5.5381,-5.5279,-5.5273,-5.5267,-5.5262,-5.5354,-5.5363,-5.5372,-5.5547,0,0,-5.54,-5.5404,0,0,0,0,0,0,0,0,-5.511,-5.5127,-5.525,-5.5249,-5.5246,-5.531,-5.5316,-5.5437,-5.5281,-5.5265,-5.5266,-5.5259,-5.5347,-5.5356,-5.5387,-5.5551,-5.5555,-5.5401,-5.5406,-5.541,-5.5413,0,0,0,0,0,0,0,-5.5103,-5.5122,-5.5321,-5.5252,-5.525,-5.5222,-5.5231,-5.5338,-5.5338,-5.5266,-5.5259,-5.5272,-5.5344,-5.5378,-5.5388,-5.5556,-5.54,-5.5408,-5.5414,-5.5418,-5.5865,-5.5871,0,0,0,0,0,0,-5.51,-5.5116,-5.5318,-5.5324,-5.5162,-5.5232,-5.5242,-5.5296,-5.5336,-5.5337,-5.5277,-5.5267,-5.5365,-5.5377,-5.5391,-5.5596,-5.541,-5.5419,-5.5424,-5.5859,-5.5866,-5.5873,0,0,0,0,0,0,-5.5095,-5.5119,-5.5314,-5.5218,-5.5241,-5.5243,-5.5304,-5.5301,-5.5334,-5.5344,-5.5343,-5.5312,-5.5361,-5.5378,-5.5508,-5.5598,-5.5423,-5.5431,-5.5851,-5.5861,-5.587,-5.601,0,0,0,0,0,0,-5.5087,-5.5118,-5.5186,-5.5221,-5.5246,-5.5433,-5.5309,-5.5307,-5.5351,-5.5339,-5.5377,-5.5378,-5.5358,-5.5495,-5.5517,-5.5608,-5.5438,-5.5843,-5.5855,-5.5867,-5.5997,-5.6023,-5.6045,0,0,0,0,0,-5.5078,-5.5221,-5.519,-5.5215,-5.5332,-5.5438,-5.5452,-5.5428,-5.5359,-5.5426,-5.5432,-5.5376,-5.5585,-5.5509,-5.5533,-5.5628,-5.5837,-5.5852,-5.5866,-5.5987,-5.6018,-5.6045,0,0,0,0,0,0,-5.5196,-5.5225,-5.5191,-5.5351,-5.5393,-5.542,-5.5505,-5.5463,-5.5524,-5.551,-5.5475,-5.5485,-5.5623,-5.5638,-5.5554,-5.5797,-5.5699,-5.5719,-5.5783,-5.5813,-5.5836,-5.5829,-5.5446,0,0,0,0,0,-5.5241,-5.5327,-5.5346,-5.5485,-5.5508,-5.5503,-5.5548,-5.5526,-5.5567,-5.5584,-5.56,-5.5641,-5.5715,-5.5765,-5.5834,-5.5999,-5.6004,-5.6075,-5.6099,-5.6119,-5.6136,-5.6222,-5.6253,-5.592,-5.592,-5.592,0,0,-5.5335,-5.5361,-5.5417,-5.551,-5.554,-5.5627,-5.5519,-5.5616,-5.5679,-5.5598,-5.5722,-5.5735,-5.5778,-5.5926,-5.5992,-5.5943,-5.6229,-5.6137,-5.6153,-5.6159,-5.624,-5.6271,-5.6299,-5.593,-5.5928,-5.5927,0,0,-5.5549,-5.5579,-5.5696,-5.5729,-5.5776,-5.5771,-5.5799,-5.5833,-5.5839,-5.5963,-5.5903,-5.5977,-5.6107,-5.6139,-5.6172,-5.6397,-5.6347,-5.642,-5.6545,-5.6629,-5.6655,-5.6678,-5.6756,-5.6785,-5.6437,-5.6438,-5.6438,0,-5.5659,-5.5789,-5.5762,-5.5863,-5.5904,-5.5836,-5.5953,-5.5985,-5.6052,-5.6081,-5.6026,-5.6185,-5.6209,-5.6363,-5.6417,-5.6447,-5.6477,-5.6415,-5.6654,-5.6677,-5.6698,-5.6772,-5.6802,-5.6446,-5.6445,-5.6444,-5.6443,0,-5.5921,-5.6012,-5.6101,-5.6168,-5.6219,-5.6328,-5.6315,-5.637,-5.6342,-5.6343,-5.6468,-5.6495,-5.6567,-5.6601,-5.6576,-5.6751,-5.6719,-5.666,-5.656,-5.6739,-5.6807,-5.6836,-5.6458,-5.6455,-5.6453,-5.6451,0,0,-5.6213,-5.6263,-5.6296,-5.6325,-5.6371,-5.6439,-5.6543,-5.6615,-5.6662,-5.671,-5.6794,-5.6905,-5.685,-5.6888,-5.6864,-5.6938,-5.7112,-5.6869,-5.6869,-5.6912,-5.7304,-5.7347,-5.7381,-5.7079,-5.7084,-5.7088,-5.7299,0,-5.6427,-5.661,-5.6588,-5.6762,-5.6844,-5.6779,-5.6869,-5.6906,-5.6909,-5.6977,-5.6978,-5.7057,-5.6979,-5.7001,-5.7071,-5.7076,-5.7189,-5.706,-5.7155,-5.7159,-5.7146,-5.7417,-5.7464,-5.7662,-5.7326,-5.7331,-5.7334,0,-5.6702,-5.676,-5.6943,-5.6974,-5.7008,-5.709,-5.7152,-5.7219,-5.7258,-5.7254,-5.7297,-5.7259,-5.7361,-5.726,-5.7398,-5.7311,-5.7348,-5.7355,-5.7362,-5.737,-5.7257,-5.743,-5.7725,-5.7754,-5.7377,-5.7373,-5.737,0,-5.6895,-5.7019,-5.7144,-5.7171,-5.7211,-5.7269,-5.7288,-5.7321,-5.7365,-5.7419,-5.7447,-5.7512,-5.7547,-5.7597,-5.7577,-5.7506,-5.7718,-5.7616,-5.7716,-5.7717,-5.7763,-5.7761,-5.8067,-5.779,-5.7789,-5.7789,-5.7788,0,-5.7136,-5.725,-5.7231,-5.7308,-5.7432,-5.7404,-5.7527,-5.7537,-5.7567,-5.7643,-5.759,-5.7662,-5.7632,-5.7701,-5.7686,-5.7801,-5.7818,-5.7816,-5.781,-5.782,-5.7821,-5.7844,-5.7829,-5.7796,-5.7795,-5.7793,-5.7792,0,-5.7373,-5.7365,-5.7497,-5.7523,-5.7533,-5.7623,-5.7645,-5.7715,-5.7713,-5.7809,-5.783,-5.7826,-5.7905,-5.789,-5.7976,-5.7966,-5.811,-5.8088,-5.8097,-5.8092,-5.8192,-5.8182,-5.8523,-5.8566,-5.8262,-5.8265,-5.8267,0,-5.7527,-5.7613,-5.7649,-5.7696,-5.772,-5.7797,-5.7842,-5.7816,-5.7864,-5.7914,-5.7978,-5.8051,-5.8109,-5.8237,-5.824,-5.8305,-5.8283,-5.8398,-5.8293,-5.8299,-5.8283,-5.8278,-5.8285,-5.8419,-5.8422,-5.8425,-5.8428,0,-5.78,-5.7792,-5.7859,-5.7925,-5.7979,-5.8029,-5.8074,-5.8115,-5.8093,-5.8149,-5.8229,-5.8274,-5.8361,-5.8435,-5.8495,-5.8511,-5.8466,-5.8461,-5.8487,-5.8498,-5.8499,-5.8498,-5.8153,-5.8453,-5.845,-5.8449,-5.8447,-5.8446,-5.7999,-5.8072,-5.8108,-5.8184,-5.8215,-5.8257,-5.8324,-5.8331,-5.8397,-5.8468,-5.8448,-5.8538,-5.8572,-5.8648,-5.8671,-5.874,-5.8697,-5.8735,-5.8745,-5.8755,-5.8766,-5.8489,-5.8751,-5.875,-5.8749,-5.8749,-5.8748,0,-5.8268,-5.8288,-5.8358,-5.8422,-5.8481,-5.8434,-5.8481,-5.8532,-5.8613,-5.8649,-5.8707,-5.8798,-5.8868,-5.8877,-5.8942,-5.8995,-5.8976,-5.9013,-5.9009,-5.9013,-5.8802,-5.8772,-5.9028,-5.9028,-5.9028,-5.9028,-5.9028,-5.9028,-5.8415,-5.8535,-5.8531,-5.8664,-5.8682,-5.8771,-5.8802,-5.884,-5.8868,-5.8972,-5.9031,-5.9036,-5.9061,-5.9127,-5.9189,-5.9189,-5.9215,-5.9261,-5.9253,-5.9056,-5.9028,-5.9001,-5.8973,-5.9267,-5.9267,-5.9458,-5.946,-5.9461]}]]